Location: Unspecified
(0.0000°N, 0.0000°E)
Time: 12:52:20
(UTC+00:00)

deb NNSS 30020 - Visible Passes

Search period start: 15 November 2025 00:00
Search period end: 25 November 2025 00:00
Orbit: 994 x 1024 km, 90.0° (Epoch: 14 November)

Date Brightness Start Highest point End Pass type
(mag) Time Alt. Az. Time Alt. Az. Time Alt. Az.
15 Nov ? 19:53:57 69° SSE 19:53:57 69° SSE 19:59:34 10° S visible
16 Nov ? 18:43:10 16° E 18:43:28 16° E 18:47:12 10° SE visible
16 Nov ? 20:28:29 41° W 20:28:29 41° W 20:34:14 10° SSW visible
17 Nov ? 19:17:40 40° ENE 19:18:34 42° E 19:24:32 10° SSE visible
17 Nov ? 21:02:59 16° W 21:03:22 16° W 21:06:59 10° WSW visible
18 Nov ? 19:52:06 54° NNW 19:53:41 78° W 20:00:04 10° S visible
19 Nov ? 18:41:10 17° ENE 18:43:58 22° E 18:48:43 10° SE visible
19 Nov ? 20:26:29 24° NW 20:28:47 31° W 20:34:15 10° SW visible
20 Nov ? 19:15:28 26° NNE 19:19:04 57° E 19:25:18 10° S visible
20 Nov ? 21:02:24 10° WNW 21:03:52 11° W 21:05:20 10° W visible
21 Nov ? 18:08:14 10° E 18:09:22 10° E 18:10:30 10° ESE visible
21 Nov ? 19:49:41 20° NNW 19:54:10 58° W 20:00:25 10° SSW visible
22 Nov ? 18:39:01 10° NE 18:44:28 30° E 18:49:53 10° SSE visible
22 Nov ? 20:24:28 10° NW 20:29:16 23° W 20:34:05 10° SW visible
23 Nov ? 19:13:11 10° N 19:19:34 76° E 19:25:55 10° S visible
24 Nov ? 18:06:22 10° ENE 18:09:51 15° E 18:13:19 10° SE visible
24 Nov ? 19:48:41 10° NNW 19:54:40 43° W 20:00:38 10° SSW visible
